Location: Campillo
(40.8621°N, 4.2488°W)
Time: 12:22:41
(UTC+00:00)

SL-8 Rocket - Pass Details

Date: 11 May 2021
Orbit: 957 x 990 km, 82.9° (Epoch: 14 June)

Event Time Altitude Azimuth Distance (km) Brightness Sun altitude
Rises 22:32:24 0° 358° (N) 3,713 8.1 -26.5°
Reaches altitude 10° 22:35:03 10° 4° (N) 2,760 7.1 -26.7°
Maximum altitude 22:41:09 48° 78° (ENE) 1,269 4.4 -27.2°
Enters shadow 22:41:33 48° 89° (E) 1,278 4.4 -27.3°
